PRAETORIAN SDA_614

Last updated on Thu Sep 10 2026 00:03:39 GMT+0000 (Coordinated Universal Time)

1 65577U 25203N 26252.57141553 .00000001 00000+0 -96874-5 0 9990 2 65577 81.2990 292.3617 0006444 329.4546 30.6235 13.84783488 50392
UTC large
Height (km)
Speed (km/s)
/
Latitude / Longitude
Inclination (degrees)
Orbital Period (minutes)
Azimuth
Elevation
Range (km)
Doppler Factor

Next 0 passes for location: London (51.5072 / 0.1276)

No passes found over London.
PRAETORIAN SDA_614